When you browse on this site, cookies collect data to enhance your experience and personalize the content and advertising you see.
Visit our Privacy Policy to learn more. By continuing to use the site, you agree to this use of cookies and data.
  • In Hungary
  • List of Countries
  • For 7 days
  • Water Temperature
  • Weather Map
  • News
  • Weather Widgets
  • user-avatar
    Login

    Hourly Weather Crateus

    Today, 14 November, Thursday

    Time Temperature Precipitation Wind Pressure Humidity
    00:00 +26°C° 0 mm 2 mps 732 mmHg 67%
    01:00 +25°C° 0 mm 2 mps 732 mmHg 72%
    02:00 +25°C° 0 mm 1 mps 732 mmHg 76%
    03:00 +24°C° 0 mm 1 mps 732 mmHg 80%
    04:00 +25°C° 0 mm 1 mps 732 mmHg 79%
    05:00 +25°C° 0 mm 2 mps 733 mmHg 78%
    06:00 +25°C° 0 mm 2 mps 733 mmHg 77%
    07:00 +28°C° 0 mm 2 mps 733 mmHg 65%
    08:00 +30°C° 0 mm 3 mps 734 mmHg 53%
    09:00 +34°C° 0 mm 3 mps 734 mmHg 41%
    10:00 +36°C° 0 mm 3 mps 733 mmHg 35%
    11:00 +38°C° 0 mm 3 mps 732 mmHg 29%
    12:00 +42°C° 0 mm 3 mps 732 mmHg 22%
    13:00 +41°C° 0 mm 2 mps 731 mmHg 21%
    14:00 +41°C° 0 mm 2 mps 730 mmHg 19%
    15:00 +42°C° 0 mm 2 mps 729 mmHg 18%
    16:00 +40°C° 0 mm 2 mps 729 mmHg 20%
    17:00 +37°C° 0 mm 1 mps 730 mmHg 22%
    18:00 +34°C° 0 mm 1 mps 730 mmHg 25%
    19:00 +33°C° 0 mm 1 mps 730 mmHg 27%
    20:00 +32°C° 0 mm 1 mps 731 mmHg 29%
    21:00 +30°C° 0 mm 1 mps 732 mmHg 31%
    22:00 +29°C° 0 mm 1 mps 731 mmHg 43%
    23:00 +27°C° 0 mm 1 mps 731 mmHg 55%

    Tomorrow, 15 November, Friday

    Time Temperature Precipitation Wind Pressure Humidity
    00:00 +25°C° 0 mm 1 mps 731 mmHg 66%
    01:00 +25°C° 0 mm 1 mps 731 mmHg 71%
    02:00 +25°C° 0 mm 1 mps 731 mmHg 76%
    03:00 +24°C° 0 mm 1 mps 731 mmHg 81%
    04:00 +25°C° 0 mm 2 mps 732 mmHg 79%
    05:00 +25°C° 0 mm 2 mps 732 mmHg 77%
    06:00 +26°C° 0 mm 2 mps 733 mmHg 75%
    07:00 +28°C° 0 mm 2 mps 733 mmHg 66%
    08:00 +30°C° 0 mm 3 mps 733 mmHg 56%
    09:00 +33°C° 0 mm 3 mps 734 mmHg 47%
    10:00 +35°C° 0 mm 3 mps 733 mmHg 41%
    11:00 +37°C° 0 mm 3 mps 733 mmHg 36%
    12:00 +39°C° 0 mm 3 mps 732 mmHg 30%
    13:00 +39°C° 0 mm 2 mps 731 mmHg 28%
    14:00 +40°C° 0 mm 2 mps 730 mmHg 26%
    15:00 +40°C° 0 mm 1 mps 729 mmHg 24%
    16:00 +39°C° 0 mm 1 mps 729 mmHg 26%
    17:00 +36°C° 0 mm 1 mps 729 mmHg 29%
    18:00 +32°C° 0 mm 0 mps 729 mmHg 32%
    19:00 +31°C° 0 mm 0 mps 729 mmHg 34%
    20:00 +30°C° 0 mm 0 mps 730 mmHg 36%
    21:00 +29°C° 0 mm 0 mps 731 mmHg 37%
    22:00 +30°C° 0 mm 1 mps 730 mmHg 48%
    23:00 +28°C° 0 mm 2 mps 730 mmHg 58%

    Day after tomorrow, 16 November, Saturday

    Time Temperature Precipitation Wind Pressure Humidity
    00:00 +26°C° 0 mm 2 mps 730 mmHg 69%
    01:00 +25°C° 0 mm 2 mps 730 mmHg 73%
    02:00 +24°C° 0 mm 2 mps 730 mmHg 77%
    03:00 +24°C° 0 mm 1 mps 730 mmHg 81%
    04:00 +24°C° 0 mm 1 mps 730 mmHg 80%
    05:00 +24°C° 0 mm 1 mps 731 mmHg 79%
    06:00 +25°C° 0 mm 1 mps 731 mmHg 78%
    07:00 +27°C° 0 mm 2 mps 731 mmHg 70%
    08:00 +29°C° 0 mm 2 mps 732 mmHg 61%
    09:00 +31°C° 0 mm 3 mps 732 mmHg 53%
    10:00 +35°C° 0 mm 3 mps 731 mmHg 44%
    11:00 +38°C° 0 mm 2 mps 731 mmHg 35%
    12:00 +41°C° 0 mm 2 mps 730 mmHg 27%
    13:00 +40°C° 0 mm 2 mps 729 mmHg 27%
    14:00 +40°C° 0 mm 2 mps 729 mmHg 27%
    15:00 +39°C° 0 mm 2 mps 728 mmHg 27%
    16:00 +36°C° 0 mm 1 mps 728 mmHg 30%
    17:00 +35°C° 0 mm 1 mps 728 mmHg 33%
    18:00 +33°C° 0 mm 1 mps 728 mmHg 36%
    19:00 +32°C° 0 mm 2 mps 729 mmHg 39%
    20:00 +31°C° 0 mm 2 mps 729 mmHg 43%
    21:00 +30°C° 0 mm 3 mps 730 mmHg 46%
    22:00 +29°C° 0 mm 3 mps 730 mmHg 54%
    23:00 +28°C° 0 mm 3 mps 729 mmHg 61%

    17 November, Sunday

    Time Temperature Precipitation Wind Pressure Humidity
    00:00 +26°C° 0 mm 3 mps 729 mmHg 69%
    01:00 +25°C° 0 mm 2 mps 729 mmHg 73%
    02:00 +24°C° 0 mm 2 mps 729 mmHg 78%
    03:00 +24°C° 0 mm 2 mps 729 mmHg 82%
    04:00 +24°C° 0 mm 2 mps 729 mmHg 81%
    05:00 +24°C° 0 mm 2 mps 730 mmHg 81%
    06:00 +25°C° 0 mm 2 mps 731 mmHg 80%
    07:00 +26°C° 0 mm 2 mps 731 mmHg 73%
    08:00 +28°C° 0 mm 3 mps 732 mmHg 65%
    09:00 +29°C° 0 mm 3 mps 732 mmHg 58%
    10:00 +33°C° 0 mm 3 mps 731 mmHg 48%
    11:00 +36°C° 0 mm 3 mps 731 mmHg 39%
    12:00 +39°C° 0 mm 3 mps 730 mmHg 29%
    13:00 +40°C° 0 mm 3 mps 729 mmHg 27%
    14:00 +40°C° 0 mm 3 mps 729 mmHg 24%
    15:00 +40°C° 0 mm 3 mps 728 mmHg 22%
    16:00 +39°C° 0 mm 3 mps 728 mmHg 24%
    17:00 +37°C° 0 mm 2 mps 728 mmHg 27%
    18:00 +35°C° 0 mm 2 mps 728 mmHg 29%
    19:00 +34°C° 0 mm 2 mps 729 mmHg 34%
    20:00 +33°C° 0 mm 3 mps 729 mmHg 39%
    21:00 +30°C° 0 mm 4 mps 730 mmHg 44%
    22:00 +29°C° 0 mm 3 mps 730 mmHg 52%
    23:00 +27°C° 0 mm 3 mps 730 mmHg 60%

    18 November, Monday

    Time Temperature Precipitation Wind Pressure Humidity
    00:00 +25°C° 0 mm 2 mps 730 mmHg 68%
    01:00 +25°C° 0 mm 2 mps 730 mmHg 73%
    02:00 +24°C° 0 mm 2 mps 730 mmHg 77%
    03:00 +23°C° 0 mm 1 mps 730 mmHg 82%
    04:00 +23°C° 0 mm 2 mps 730 mmHg 83%
    05:00 +24°C° 0 mm 2 mps 731 mmHg 83%
    06:00 +24°C° 0 mm 2 mps 731 mmHg 83%
    07:00 +27°C° 0 mm 2 mps 732 mmHg 71%
    08:00 +29°C° 0 mm 3 mps 732 mmHg 60%
    09:00 +33°C° 0 mm 4 mps 732 mmHg 48%
    10:00 +35°C° 0 mm 4 mps 732 mmHg 40%
    11:00 +38°C° 0 mm 4 mps 731 mmHg 33%
    12:00 +41°C° 0 mm 4 mps 731 mmHg 25%
    13:00 +42°C° 0 mm 4 mps 730 mmHg 23%
    14:00 +42°C° 0 mm 4 mps 729 mmHg 21%
    15:00 +42°C° 0 mm 4 mps 728 mmHg 19%
    16:00 +39°C° 0 mm 3 mps 729 mmHg 21%
    17:00 +37°C° 0 mm 3 mps 729 mmHg 24%
    18:00 +36°C° 0 mm 2 mps 729 mmHg 27%
    19:00 +34°C° 0 mm 2 mps 729 mmHg 31%
    20:00 +32°C° 0 mm 2 mps 730 mmHg 35%
    21:00 +30°C° 0 mm 2 mps 730 mmHg 39%
    22:00 +29°C° 0 mm 2 mps 730 mmHg 49%
    23:00 +27°C° 0 mm 2 mps 730 mmHg 59%

    19 November, Tuesday

    Time Temperature Precipitation Wind Pressure Humidity
    00:00 +26°C° 0 mm 2 mps 730 mmHg 69%
    01:00 +25°C° 0 mm 2 mps 731 mmHg 74%
    02:00 +24°C° 0 mm 2 mps 731 mmHg 79%
    03:00 +24°C° 0 mm 2 mps 731 mmHg 84%
    04:00 +25°C° 0 mm 2 mps 731 mmHg 81%
    05:00 +25°C° 0 mm 2 mps 732 mmHg 78%
    06:00 +26°C° 0 mm 1 mps 732 mmHg 76%
    07:00 +28°C° 0 mm 2 mps 733 mmHg 68%
    08:00 +30°C° 0 mm 2 mps 733 mmHg 60%
    09:00 +31°C° 0 mm 3 mps 733 mmHg 52%
    10:00 +35°C° 0 mm 3 mps 733 mmHg 44%
    11:00 +38°C° 0 mm 3 mps 732 mmHg 35%
    12:00 +40°C° 0 mm 3 mps 731 mmHg 26%
    13:00 +40°C° 0 mm 3 mps 731 mmHg 24%
    14:00 +42°C° 0 mm 3 mps 730 mmHg 22%
    15:00 +42°C° 0 mm 4 mps 729 mmHg 21%
    16:00 +39°C° 0 mm 3 mps 729 mmHg 22%
    17:00 +37°C° 0 mm 3 mps 729 mmHg 24%
    18:00 +35°C° 0 mm 2 mps 730 mmHg 26%
    19:00 +32°C° 0 mm 2 mps 730 mmHg 30%
    20:00 +31°C° 0 mm 2 mps 731 mmHg 33%
    21:00 +30°C° 0 mm 2 mps 731 mmHg 37%
    22:00 +28°C° 0 mm 1 mps 731 mmHg 47%
    23:00 +27°C° 0 mm 1 mps 731 mmHg 56%
    Show more